Regional Weather Roundup
Issued by NWS Albany, NY

Home | Current Version | Previous Version | Text Only | Print | Product List | Glossary On
Versions: 1 2 3 4 5 6 7 8 9 10 11 12 13 14 15 16 17 18 19 20 21 22 23 24 25 26 27 28 29 30 31 32 33 34 35 36 37 38 39 40 41 42 43 44 45 46 47 48 49
000
ASUS41 KALY 070710
RWRALY

NEW YORK STATE HOURLY WEATHER ROUNDUP
NATIONAL WEATHER SERVICE ALBANY NY
300 AM EDT THU MAY 07 2015

NOTE: "FAIR" INDICATES FEW OR NO CLOUDS BELOW 12,000 FEET WITH NO
SIGNIFICANT WEATHER AND/OR NO OBSTRUCTIONS TO VISIBILITY.

NYZ032-033-038>043-046>054-057>066-NYZ062>081-070800-
EAST


CITY           SKY/WX    TMP DP  RH WIND       PRES   REMARKS
ALBANY         CLEAR     54  40  59 CALM      30.21S
GLENS FALLS    CLEAR     45  39  79 CALM      30.20S
POUGHKEEPSIE   CLEAR     47  44  90 CALM      30.20F
NEWBURGH       CLEAR     52  46  82 CALM      30.22F
MONTGOMERY     CLEAR     44  41  89 SW5       30.21F
WHITE PLAINS   CLEAR     47  44  90 NW5       30.21F
ISLIP          CLEAR     48  43  82 N3        30.20F
NEW YORK CITY  CLEAR     56  47  71 CALM      30.21F
CENTRAL PARK   CLEAR     57  46  66 CALM      30.24F
$$

NYZ005>009-017-018-044>046-055-056-070800-
CENTRAL


CITY           SKY/WX    TMP DP  RH WIND       PRES   REMARKS
FULTON         CLEAR     48  41  76 CALM      30.20F
SYRACUSE       PTCLDY    54  45  71 CALM      30.20F
ROME           CLEAR     44  39  82 SE3       30.23F
ELMIRA         FOG       45  45 100 CALM      30.21F VSB 1/4
BINGHAMTON     CLEAR     52  47  83 CALM      30.22F
MONTICELLO     CLEAR     46  45  93 CALM      30.24F
$$

NYZ026>034-041>043-070800-
NORTH


CITY           SKY/WX    TMP DP  RH WIND       PRES   REMARKS
WATERTOWN      CLEAR     43  39  86 SW3       30.19S
FORT DRUM      NOT AVBL
MASSENA        CLEAR     51  37  58 SW7       30.18R
SARANAC LAKE   CLEAR     32  29  88 CALM      30.20S
PLATTSBURGH    PTCLDY    47  39  74 S6        30.15R
$$

NYZ001>004-010>016-019>021-070800-
WEST


CITY           SKY/WX    TMP DP  RH WIND       PRES   REMARKS
NIAGARA FALLS  CLEAR     52  40  63 CALM      30.17F
BUFFALO        CLEAR     58  52  80 SE6       30.18F
DUNKIRK        CLEAR     51  50  96 CALM      30.17F
JAMESTOWN      CLOUDY    54  52  94 SE6       30.20F VSB<1/4
WELLSVILLE     CLOUDY    55  52  89 S3        30.22F FOG
ROCHESTER      PTCLDY    53  43  68 CALM      30.19F
PENN YAN       CLEAR     51  48  89 S3        30.20F
$$

             KEY
       WCI = WIND CHILL INDEX
       VSB = VISIBILITY
       HX  = HEAT INDEX
$$



USA.gov is the U.S. government's official web portal to all federal, state and local government web resources and services.